Location: Central Falls
(41.8900°N, 71.3929°W)
Time: 02:21:21
(UTC+00:00)

Vanguard 2 - Pass Details

Date: 10 December 2023
Orbit: 554 x 2918 km, 32.9° (Epoch: 01 March)

Event Time Altitude Azimuth Distance (km) Brightness Sun altitude
Rises 22:45:44 0° 218° (SW) 6,067 13.0 -16.4°
Reaches altitude 10° 22:49:50 10° 211° (SSW) 5,299 12.4 -17.1°
Maximum altitude 23:04:30 40° 150° (SSE) 3,819 10.8 -19.8°
Enters shadow 23:14:29 23° 101° (E) 4,633 10.9 -21.6°
Drops below altitude 10° 23:19:34 10° 89° (E) 5,461 - -22.5°
Sets 23:23:49 0° 83° (E) 6,266 - -23.3°
